Time,TemperatureF,DewpointF,PressureIn,WindDirection,WindDirectionDegrees,WindSpeedMPH,WindSpeedGustMPH,Humidity,HourlyPrecipIn,Conditions,Clouds,dailyrainin,SoftwareType,DateUTC
2013-03-14 00:12:00,29.0,19.0,30.16,West,277,11.0,20.0,67,0.00,,,0.00,,2013-03-14 04:12:00,
2013-03-14 00:22:00,29.0,20.0,30.16,WNW,282,11.0,19.0,68,0.00,,,0.00,,2013-03-14 04:22:00,
2013-03-14 00:32:00,28.0,18.0,30.16,NW,313,10.0,20.0,67,0.00,,,0.00,,2013-03-14 04:32:00,
2013-03-14 00:42:00,28.0,18.0,30.16,NW,313,10.0,20.0,67,0.00,,,0.00,,2013-03-14 04:42:00,
2013-03-14 00:53:00,28.0,18.0,30.16,NW,313,10.0,20.0,67,0.00,,,0.00,,2013-03-14 04:53:00,
2013-03-14 01:02:00,28.0,18.0,30.16,NW,313,10.0,20.0,67,0.00,,,0.00,,2013-03-14 05:02:00,
2013-03-14 01:12:00,28.0,18.0,30.16,NW,313,10.0,20.0,67,0.00,,,0.00,,2013-03-14 05:12:00,
2013-03-14 01:22:00,28.0,19.0,30.16,WNW,300,9.0,16.0,69,0.00,,,0.00,,2013-03-14 05:22:00,
2013-03-14 01:33:00,28.0,20.0,30.16,WNW,288,8.0,16.0,70,0.00,,,0.00,,2013-03-14 05:33:00,
2013-03-14 01:42:00,28.0,20.0,30.16,WNW,288,8.0,16.0,70,0.00,,,0.00,,2013-03-14 05:42:00,
2013-03-14 01:53:00,28.0,19.0,30.16,WNW,298,10.0,17.0,69,0.00,,,0.00,,2013-03-14 05:53:00,
2013-03-14 02:02:00,28.0,19.0,30.17,West,278,9.0,19.0,69,0.00,,,0.00,,2013-03-14 06:02:00,
2013-03-14 02:12:00,28.0,19.0,30.17,West,278,9.0,19.0,69,0.00,,,0.00,,2013-03-14 06:12:00,
2013-03-14 02:22:00,27.0,18.0,30.17,WNW,283,10.0,16.0,69,0.00,,,0.00,,2013-03-14 06:22:00,
2013-03-14 02:33:00,27.0,18.0,30.17,NW,312,9.0,19.0,69,0.00,,,0.00,,2013-03-14 06:33:00,
2013-03-14 02:42:00,27.0,18.0,30.17,NW,312,9.0,19.0,69,0.00,,,0.00,,2013-03-14 06:42:00,
2013-03-14 02:52:00,27.0,18.0,30.17,WNW,286,10.0,20.0,68,0.00,,,0.00,,2013-03-14 06:52:00,
2013-03-14 03:02:00,27.0,18.0,30.18,NW,311,9.0,17.0,69,0.00,,,0.00,,2013-03-14 07:02:00,
2013-03-14 03:12:00,27.0,18.0,30.18,NW,311,9.0,17.0,69,0.00,,,0.00,,2013-03-14 07:12:00,
2013-03-14 03:22:00,27.0,18.0,30.18,NW,304,9.0,18.0,69,0.00,,,0.00,,2013-03-14 07:22:00,
2013-03-14 03:32:00,27.0,19.0,30.18,West,279,10.0,18.0,70,0.00,,,0.00,,2013-03-14 07:32:00,
2013-03-14 03:43:00,27.0,19.0,30.18,West,279,10.0,18.0,70,0.00,,,0.00,,2013-03-14 07:43:00,
2013-03-14 03:52:00,27.0,18.0,30.18,West,277,10.0,16.0,68,0.00,,,0.00,,2013-03-14 07:52:00,
2013-03-14 04:02:00,27.0,18.0,30.18,NW,306,12.0,20.0,68,0.00,,,0.00,,2013-03-14 08:02:00,
2013-03-14 04:12:00,27.0,18.0,30.18,NW,306,12.0,20.0,68,0.00,,,0.00,,2013-03-14 08:12:00,
2013-03-14 04:22:00,27.0,18.0,30.18,NW,306,12.0,20.0,68,0.00,,,0.00,,2013-03-14 08:22:00,
2013-03-14 04:32:00,27.0,18.0,30.18,WNW,297,10.0,17.0,69,0.00,,,0.00,,2013-03-14 08:32:00,
2013-03-14 04:42:00,27.0,18.0,30.18,WNW,297,10.0,17.0,69,0.00,,,0.00,,2013-03-14 08:42:00,
2013-03-14 04:52:00,27.0,18.0,30.18,NW,308,8.0,16.0,69,0.00,,,0.00,,2013-03-14 08:52:00,
2013-03-14 05:02:00,26.0,17.0,30.18,WNW,289,8.0,15.0,68,0.00,,,0.00,,2013-03-14 09:02:00,
2013-03-14 05:12:00,26.0,17.0,30.18,WNW,289,8.0,15.0,68,0.00,,,0.00,,2013-03-14 09:12:00,
2013-03-14 05:22:00,26.0,17.0,30.18,WNW,292,10.0,17.0,67,0.00,,,0.00,,2013-03-14 09:22:00,
2013-03-14 05:32:00,26.0,17.0,30.18,WNW,294,8.0,14.0,67,0.00,,,0.00,,2013-03-14 09:32:00,
2013-03-14 05:42:00,26.0,17.0,30.18,WNW,294,8.0,14.0,67,0.00,,,0.00,,2013-03-14 09:42:00,
2013-03-14 05:52:00,26.0,17.0,30.19,West,279,7.0,14.0,67,0.00,,,0.00,,2013-03-14 09:52:00,
2013-03-14 06:02:00,26.0,17.0,30.19,NW,326,7.0,19.0,68,0.00,,,0.00,,2013-03-14 10:02:00,
2013-03-14 06:12:00,26.0,17.0,30.19,NW,326,7.0,19.0,68,0.00,,,0.00,,2013-03-14 10:12:00,
2013-03-14 06:22:00,26.0,17.0,30.19,NW,311,9.0,16.0,67,0.00,,,0.00,,2013-03-14 10:22:00,
2013-03-14 06:32:00,26.0,17.0,30.19,WNW,285,7.0,16.0,67,0.00,,,0.00,,2013-03-14 10:32:00,
2013-03-14 06:42:00,26.0,17.0,30.19,WNW,285,7.0,16.0,67,0.00,,,0.00,,2013-03-14 10:42:00,
2013-03-14 06:52:00,26.0,17.0,30.20,WNW,300,9.0,17.0,68,0.00,,,0.00,,2013-03-14 10:52:00,
2013-03-14 07:02:00,26.0,17.0,30.20,WSW,254,6.0,16.0,68,0.00,,,0.00,,2013-03-14 11:02:00,
2013-03-14 07:12:00,26.0,17.0,30.20,WSW,254,6.0,16.0,68,0.00,,,0.00,,2013-03-14 11:12:00,
2013-03-14 07:22:00,26.0,17.0,30.21,WNW,296,8.0,14.0,69,0.00,,,0.00,,2013-03-14 11:22:00,
2013-03-14 07:33:00,26.0,17.0,30.21,West,263,7.0,15.0,69,0.00,,,0.00,,2013-03-14 11:33:00,
2013-03-14 07:42:00,26.0,17.0,30.21,West,263,7.0,15.0,69,0.00,,,0.00,,2013-03-14 11:42:00,
2013-03-14 07:53:00,25.0,16.0,30.21,NW,304,9.0,17.0,69,0.00,,,0.00,,2013-03-14 11:53:00,
2013-03-14 08:02:00,25.0,17.0,30.21,WNW,290,8.0,14.0,70,0.00,,,0.00,,2013-03-14 12:02:00,
2013-03-14 08:12:00,25.0,17.0,30.21,WNW,290,8.0,14.0,70,0.00,,,0.00,,2013-03-14 12:12:00,
2013-03-14 08:22:00,25.0,17.0,30.22,WNW,296,8.0,14.0,70,0.00,,,0.00,,2013-03-14 12:22:00,
2013-03-14 08:33:00,26.0,18.0,30.22,NW,315,5.0,11.0,70,0.00,,,0.00,,2013-03-14 12:33:00,
2013-03-14 08:42:00,26.0,18.0,30.22,NW,315,5.0,11.0,70,0.00,,,0.00,,2013-03-14 12:42:00,
2013-03-14 08:52:00,26.0,18.0,30.22,WNW,282,7.0,14.0,71,0.00,,,0.00,,2013-03-14 12:52:00,
2013-03-14 09:02:00,26.0,18.0,30.23,WNW,292,6.0,14.0,70,0.00,,,0.00,,2013-03-14 13:02:00,
2013-03-14 09:13:00,26.0,18.0,30.23,WNW,292,6.0,14.0,70,0.00,,,0.00,,2013-03-14 13:13:00,
2013-03-14 09:22:00,26.0,18.0,30.23,NW,308,9.0,16.0,71,0.00,,,0.00,,2013-03-14 13:22:00,
2013-03-14 09:32:00,27.0,19.0,30.23,West,281,9.0,18.0,70,0.00,,,0.00,,2013-03-14 13:32:00,
2013-03-14 09:43:00,27.0,19.0,30.23,West,281,9.0,18.0,70,0.00,,,0.00,,2013-03-14 13:43:00,
2013-03-14 09:52:00,27.0,18.0,30.24,West,275,10.0,16.0,69,0.00,,,0.00,,2013-03-14 13:52:00,
2013-03-14 10:02:00,27.0,18.0,30.24,West,272,12.0,18.0,69,0.00,,,0.00,,2013-03-14 14:02:00,
2013-03-14 10:12:00,27.0,18.0,30.24,West,272,12.0,18.0,69,0.00,,,0.00,,2013-03-14 14:12:00,
2013-03-14 10:22:00,27.0,19.0,30.24,WNW,295,9.0,16.0,70,0.00,,,0.00,,2013-03-14 14:22:00,
2013-03-14 10:32:00,27.0,19.0,30.24,WNW,293,9.0,16.0,70,0.00,,,0.00,,2013-03-14 14:32:00,
2013-03-14 10:42:00,27.0,19.0,30.24,WNW,293,9.0,16.0,70,0.00,,,0.00,,2013-03-14 14:42:00,
2013-03-14 10:53:00,27.0,19.0,30.24,WNW,295,8.0,19.0,71,0.00,,,0.00,,2013-03-14 14:53:00,
2013-03-14 11:02:00,27.0,19.0,30.25,West,277,9.0,15.0,70,0.00,,,0.00,,2013-03-14 15:02:00,
2013-03-14 11:12:00,27.0,19.0,30.25,West,277,9.0,15.0,70,0.00,,,0.00,,2013-03-14 15:12:00,
2013-03-14 11:22:00,27.0,19.0,30.25,NW,304,9.0,15.0,71,0.00,,,0.00,,2013-03-14 15:22:00,
2013-03-14 11:33:00,26.0,18.0,30.25,NW,311,9.0,17.0,72,0.00,,,0.00,,2013-03-14 15:33:00,
2013-03-14 11:43:00,26.0,18.0,30.25,NW,311,9.0,17.0,72,0.00,,,0.00,,2013-03-14 15:43:00,
2013-03-14 11:52:00,27.0,18.0,30.26,WNW,294,8.0,15.0,68,0.00,,,0.00,,2013-03-14 15:52:00,
2013-03-14 12:03:00,27.0,19.0,30.26,NNW,344,5.0,16.0,70,0.00,,,0.00,,2013-03-14 16:03:00,
2013-03-14 12:13:00,27.0,19.0,30.26,NNW,344,5.0,16.0,70,0.00,,,0.00,,2013-03-14 16:13:00,
2013-03-14 12:23:00,27.0,18.0,30.26,West,272,8.0,16.0,68,0.00,,,0.00,,2013-03-14 16:23:00,
2013-03-14 12:32:00,27.0,18.0,30.26,WSW,256,9.0,16.0,67,0.00,,,0.00,,2013-03-14 16:32:00,
2013-03-14 12:42:00,27.0,18.0,30.26,WSW,256,9.0,16.0,67,0.00,,,0.00,,2013-03-14 16:42:00,
2013-03-14 12:52:00,27.0,18.0,30.25,WSW,253,8.0,15.0,69,0.00,,,0.00,,2013-03-14 16:52:00,
2013-03-14 13:02:00,28.0,18.0,30.26,WNW,288,8.0,15.0,67,0.00,,,0.00,,2013-03-14 17:02:00,
2013-03-14 13:13:00,28.0,18.0,30.26,WNW,288,8.0,15.0,67,0.00,,,0.00,,2013-03-14 17:13:00,
2013-03-14 13:23:00,28.0,19.0,30.26,West,272,6.0,13.0,68,0.00,,,0.00,,2013-03-14 17:23:00,
2013-03-14 13:33:00,27.0,18.0,30.26,WNW,294,9.0,17.0,68,0.00,,,0.00,,2013-03-14 17:33:00,
2013-03-14 13:42:00,27.0,18.0,30.26,WNW,294,9.0,17.0,68,0.00,,,0.00,,2013-03-14 17:42:00,
2013-03-14 13:53:00,28.0,19.0,30.25,NW,306,6.0,17.0,68,0.00,,,0.00,,2013-03-14 17:53:00,
2013-03-14 14:03:00,28.0,19.0,30.26,WNW,283,7.0,15.0,69,0.00,,,0.00,,2013-03-14 18:03:00,
2013-03-14 14:12:00,28.0,19.0,30.26,WNW,283,7.0,15.0,69,0.00,,,0.00,,2013-03-14 18:12:00,
2013-03-14 14:23:00,28.0,19.0,30.25,NW,325,7.0,18.0,68,0.00,,,0.00,,2013-03-14 18:23:00,
2013-03-14 14:33:00,28.0,19.0,30.24,NW,315,10.0,21.0,68,0.00,,,0.00,,2013-03-14 18:33:00,
2013-03-14 14:43:00,28.0,19.0,30.24,NW,315,10.0,21.0,68,0.00,,,0.00,,2013-03-14 18:43:00,
2013-03-14 14:53:00,29.0,19.0,30.24,WNW,288,9.0,14.0,67,0.00,,,0.00,,2013-03-14 18:53:00,
2013-03-14 15:03:00,30.0,20.0,30.23,WNW,296,10.0,17.0,66,0.00,,,0.00,,2013-03-14 19:03:00,
2013-03-14 15:12:00,30.0,20.0,30.23,WNW,296,10.0,17.0,66,0.00,,,0.00,,2013-03-14 19:12:00,
2013-03-14 15:23:00,29.0,20.0,30.22,WNW,298,10.0,15.0,68,0.00,,,0.00,,2013-03-14 19:23:00,
2013-03-14 15:32:00,29.0,20.0,30.22,WNW,302,8.0,14.0,69,0.00,,,0.00,,2013-03-14 19:32:00,
2013-03-14 15:42:00,29.0,20.0,30.22,WNW,302,8.0,14.0,69,0.00,,,0.00,,2013-03-14 19:42:00,
2013-03-14 15:52:00,30.0,20.0,30.22,WSW,242,7.0,12.0,67,0.00,,,0.00,,2013-03-14 19:52:00,
2013-03-14 16:02:00,30.0,20.0,30.22,NW,314,7.0,14.0,67,0.00,,,0.00,,2013-03-14 20:02:00,
2013-03-14 16:12:00,30.0,20.0,30.22,NW,314,7.0,14.0,67,0.00,,,0.00,,2013-03-14 20:12:00,
2013-03-14 16:22:00,31.0,21.0,30.21,WNW,302,9.0,14.0,66,0.00,,,0.00,,2013-03-14 20:22:00,
2013-03-14 16:32:00,31.0,20.0,30.21,WNW,299,8.0,13.0,62,0.00,,,0.00,,2013-03-14 20:32:00,
2013-03-14 16:42:00,31.0,20.0,30.21,WNW,299,8.0,13.0,62,0.00,,,0.00,,2013-03-14 20:42:00,
2013-03-14 16:52:00,31.0,20.0,30.21,West,261,7.0,13.0,62,0.00,,,0.00,,2013-03-14 20:52:00,
2013-03-14 17:03:00,31.0,20.0,30.21,NW,321,8.0,13.0,62,0.00,,,0.00,,2013-03-14 21:03:00,
2013-03-14 17:13:00,31.0,20.0,30.21,NW,321,8.0,13.0,62,0.00,,,0.00,,2013-03-14 21:13:00,
2013-03-14 17:22:00,32.0,20.0,30.20,NW,322,8.0,15.0,60,0.00,,,0.00,,2013-03-14 21:22:00,
2013-03-14 17:33:00,32.0,20.0,30.20,WNW,302,8.0,13.0,61,0.00,,,0.00,,2013-03-14 21:33:00,
2013-03-14 17:43:00,32.0,20.0,30.20,WNW,302,8.0,13.0,61,0.00,,,0.00,,2013-03-14 21:43:00,
2013-03-14 17:53:00,32.0,20.0,30.20,West,280,9.0,15.0,61,0.00,,,0.00,,2013-03-14 21:53:00,
2013-03-14 18:03:00,33.0,21.0,30.20,WNW,296,8.0,14.0,60,0.00,,,0.00,,2013-03-14 22:03:00,
2013-03-14 18:13:00,33.0,21.0,30.20,WNW,296,8.0,14.0,60,0.00,,,0.00,,2013-03-14 22:13:00,
2013-03-14 18:23:00,33.0,21.0,30.19,West,278,5.0,13.0,60,0.00,,,0.00,,2013-03-14 22:23:00,
2013-03-14 18:33:00,33.0,20.0,30.19,WNW,286,6.0,13.0,59,0.00,,,0.00,,2013-03-14 22:33:00,
2013-03-14 18:42:00,33.0,20.0,30.19,WNW,286,6.0,13.0,59,0.00,,,0.00,,2013-03-14 22:42:00,
2013-03-14 18:53:00,33.0,20.0,30.19,WNW,297,6.0,15.0,58,0.00,,,0.00,,2013-03-14 22:53:00,
2013-03-14 19:03:00,33.0,20.0,30.18,WNW,302,4.0,10.0,58,0.00,,,0.00,,2013-03-14 23:03:00,
2013-03-14 19:12:00,33.0,20.0,30.18,WNW,302,4.0,10.0,58,0.00,,,0.00,,2013-03-14 23:12:00,
2013-03-14 19:23:00,33.0,20.0,30.18,West,271,4.0,10.0,59,0.00,,,0.00,,2013-03-14 23:23:00,
2013-03-14 19:33:00,32.0,19.0,30.18,WNW,287,3.0,8.0,59,0.00,,,0.00,,2013-03-14 23:33:00,
2013-03-14 19:42:00,32.0,19.0,30.18,WNW,287,3.0,8.0,59,0.00,,,0.00,,2013-03-14 23:42:00,
2013-03-14 19:54:00,32.0,20.0,30.17,West,267,2.0,7.0,60,0.00,,,0.00,,2013-03-14 23:54:00,
2013-03-14 20:02:00,32.0,20.0,30.17,SW,236,3.0,6.0,60,0.00,,,0.00,,2013-03-15 00:02:00,
2013-03-14 20:12:00,32.0,20.0,30.16,SW,236,1.0,5.0,61,0.00,,,0.00,,2013-03-15 00:12:00,
2013-03-14 20:23:00,32.0,20.0,30.16,SW,236,1.0,5.0,61,0.00,,,0.00,,2013-03-15 00:23:00,
2013-03-14 20:32:00,32.0,20.0,30.16,SW,236,2.0,5.0,61,0.00,,,0.00,,2013-03-15 00:32:00,
2013-03-14 20:42:00,32.0,20.0,30.16,SW,236,2.0,5.0,61,0.00,,,0.00,,2013-03-15 00:42:00,
2013-03-14 20:52:00,32.0,20.0,30.16,SW,236,2.0,5.0,61,0.00,,,0.00,,2013-03-15 00:52:00,
2013-03-14 21:02:00,32.0,20.0,30.16,SW,236,0.0,3.0,62,0.00,,,0.00,,2013-03-15 01:02:00,
2013-03-14 21:12:00,32.0,20.0,30.16,SW,236,0.0,3.0,62,0.00,,,0.00,,2013-03-15 01:12:00,
2013-03-14 21:23:00,32.0,20.0,30.16,SW,236,0.0,4.0,62,0.00,,,0.00,,2013-03-15 01:23:00,
2013-03-14 21:32:00,32.0,21.0,30.16,SW,236,0.0,5.0,63,0.00,,,0.00,,2013-03-15 01:32:00,
2013-03-14 21:42:00,32.0,21.0,30.16,SW,236,0.0,5.0,63,0.00,,,0.00,,2013-03-15 01:42:00,
2013-03-14 21:52:00,31.0,20.0,30.16,SW,236,1.0,5.0,64,0.00,,,0.00,,2013-03-15 01:52:00,
2013-03-14 22:03:00,31.0,20.0,30.16,SW,236,0.0,5.0,64,0.00,,,0.00,,2013-03-15 02:03:00,
2013-03-14 22:12:00,31.0,20.0,30.16,SW,236,0.0,5.0,64,0.00,,,0.00,,2013-03-15 02:12:00,
2013-03-14 22:22:00,32.0,22.0,30.16,SW,236,1.0,5.0,65,0.00,,,0.00,,2013-03-15 02:22:00,
2013-03-14 22:32:00,32.0,22.0,30.15,SW,235,0.0,3.0,65,0.00,,,0.00,,2013-03-15 02:32:00,
2013-03-14 22:42:00,32.0,22.0,30.15,SW,235,0.0,3.0,65,0.00,,,0.00,,2013-03-15 02:42:00,
2013-03-14 22:52:00,32.0,22.0,30.14,SW,235,0.0,2.0,66,0.00,,,0.00,,2013-03-15 02:52:00,
2013-03-14 23:02:00,31.0,21.0,30.15,SW,235,0.0,2.0,67,0.00,,,0.00,,2013-03-15 03:02:00,
2013-03-14 23:12:00,31.0,21.0,30.15,SW,235,0.0,2.0,67,0.00,,,0.00,,2013-03-15 03:12:00,
2013-03-14 23:22:00,31.0,21.0,30.14,SW,235,0.0,2.0,67,0.00,,,0.00,,2013-03-15 03:22:00,
2013-03-14 23:33:00,31.0,22.0,30.13,SW,235,0.0,3.0,68,0.00,,,0.00,,2013-03-15 03:33:00,
2013-03-14 23:43:00,31.0,22.0,30.13,SW,235,0.0,3.0,68,0.00,,,0.00,,2013-03-15 03:43:00,
2013-03-14 23:53:00,31.0,22.0,30.13,SW,235,0.0,3.0,68,0.00,,,0.00,,2013-03-15 03:53:00,